Find UWE-1

NORAD ID: 28892 Int'l Des: 2005-043 Owner: WURZ Country: D operational
LEOCIRCULARRETROGRADESSO

Live Position

Loading 3D Globe...

About UWE-1

Description loading...

Upcoming Passes

Passes for default location (London). Set your location on the main map for personalized predictions.

Altitude History

Loading altitude history...

Two-Line Element Set

1 28892U 05043C 26106.68238825 .00000824 00000-0 13956-3 0 9999
2 28892 98.2993 261.6019 0014605 49.1822 311.0648 14.71961089 92716
Epoch: Apr 16, 2026 • Age: 17 hours

Current Status

Altitude 680.6 km
Velocity 7.51 km/s
Sub-Earth Point -40.56°S, 84.3°E
Launch Date Oct 27, 2005
Age 20.4 years
Type other

Technical Details

Classification Payload
Mass 1.00 kg
Dry Mass 1.00 kg
Total Mass 1.00 kg
Length 0.10 m
Diameter 0.10 m
Span 0.10 m
Shape Box
Manufacturer WURZ
Bus Type Cubesat 1U
Phase Status In Orbit
Owner/State WURZ/D

Most Searched